Location: Proctor
(47.8934°N, 114.3048°W)
Time: 11:29:02
(UTC+00:00)

AO-91 - Pass Details

Date: 30 June 2022
Orbit: 450 x 797 km, 97.7° (Epoch: 09 August)

Event Time Altitude Azimuth Distance (km) Brightness Sun altitude
Rises 05:24:35 0° 31° (NNE) 2,539 ? -12.6°
Reaches altitude 10° 05:27:33 10° 59° (ENE) 1,616 ? -12.9°
Maximum altitude 05:29:20 14° 90° (E) 1,396 ? -13.0°
Enters shadow 05:29:55 13° 102° (ESE) 1,414 ? -13.1°
